Voss, Norway 16 day weather forecast

Slopes altitude range -1 m - -1m

Number of lifts: -1 Pistes: -1km

In some cases the lift and piste totals shown are for the ski domain (e.g. Three Valleys) rather than individual resort (e.g. Courchevel)

Overview

The 16 day weather forecast is fully updated 4 times every day.

    • Sun 17 FEB 2019
    • Sun 17
    • -6C -3C
    • Mon 18 FEB 2019
    • Mon 18
    • -5C 0C
    • Tue 19 FEB 2019
    • Tue 19
    • -8C -1C
    • Wed 20 FEB 2019
    • Wed 20
    • -9C -6C
    • Thu 21 FEB 2019
    • Thu 21
    • -9C -1C
    • Fri 22 FEB 2019
    • Fri 22
    • -2C 2C
    • Sat 23 FEB 2019
    • Sat 23
    • 0C 2C
    • Sun 24 FEB 2019
    • Sun 24
    • -4C 0C
    • Mon 25 FEB 2019
    • Mon 25
    • -2C 3C
    • Tue 26 FEB 2019
    • Tue 26
    • -1C 3C
    • Wed 27 FEB 2019
    • Wed 27
    • -3C 3C
    • Thu 28 FEB 2019
    • Thu 28
    • -5C 1C
    • Fri 01 MAR 2019
    • Fri 01
    • -3C 2C
    • Sat 02 MAR 2019
    • Sat 02
    • -6C 2C
    • Sun 03 MAR 2019
    • Sun 03
    • -3C -2C
    • Mon 04 MAR 2019
    • Mon 04
    • -8C 0C

Date:

Time Type 0°C level Temp Chill Snow Cloud Speed Gust Dir Press
12:00 821m -3°C -3_4 1cm 100% 4mph 4mph 1016mB
15:00 736m -2°C -2_5 0cm 100% 5mph 6mph 1015mB
18:00 785m -2°C -2_6 0cm 100% 6mph 6mph 1014mB
21:00 929m -3°C -3_8 0cm 100% 8mph 11mph 1013mB
0:00 911m -3°C -3_8 0cm 100% 8mph 12mph 1011mB
3:00 698m -4°C -4_7 0cm 100% 7mph 9mph 1009mB
6:00 567m -5°C -5_6 1cm 100% 6mph 7mph 1008mB
9:00 790m -5°C -5_6 1cm 100% 6mph 8mph 1007mB
12:00 1207m 0°C 0_8 1cm 99% 8mph 20mph 1005mB
15:00 1092m 0°C 0_9 1cm 100% 9mph 22mph 1003mB
18:00 293m 0°C 0_7 1cm 71% 7mph 8mph 1002mB
21:00 412m -7°C -7_7 0cm 52% 7mph 8mph 999mB
0:00 417m -7°C -7_10 0cm 69% 10mph 13mph 996mB
3:00 671m -5°C -5_9 1cm 92% 9mph 11mph 995mB
6:00 200m -7°C -7_8 1cm 84% 8mph 9mph 994mB
9:00 502m -8°C -8_7 1cm 64% 7mph 20mph 994mB
12:00 1018m -1°C -1_15 1cm 82% 15mph 32mph 995mB
15:00 822m -1°C -1_12 0cm 49% 12mph 18mph 997mB
18:00 268m -1°C -1_8 0cm 28% 8mph 9mph 1001mB
21:00 305m -6°C -6_7 0cm 57% 7mph 8mph 1004mB
0:00 420m -6°C -6_6 0cm 69% 6mph 6mph 1007mB
3:00 137m -7°C -7_5 0cm 74% 5mph 6mph 1010mB
6:00 167m -8°C -8_3 0cm 69% 3mph 3mph 1013mB
9:00 31m -9°C -9_2 0cm 93% 2mph 2mph 1015mB
12:00 377m -6°C -6_7 0cm 95% 7mph 8mph 1016mB
15:00 313m -5°C -5_5 1cm 100% 5mph 6mph 1016mB
18:00 83m -5°C -5_5 1cm 99% 5mph 6mph 1017mB
21:00 164m -7°C -7_6 1cm 100% 6mph 8mph 1017mB
0:00 120m -7°C -7_6 1cm 100% 6mph 8mph 1017mB
3:00 119m -8°C -8_5 1cm 100% 5mph 6mph 1017mB
6:00 54m -8°C -8_4 1cm 99% 4mph 5mph 1018mB
9:00 297m -9°C -9_3 0cm 77% 3mph 4mph 1019mB
12:00 1048m -1°C -1_5 0cm 87% 5mph 6mph 1020mB
15:00 1149m 0°C 0_6 0cm 100% 6mph 7mph 1021mB
18:00 1056m 0°C 0_9 0cm 100% 9mph 9mph 1024mB
21:00 1115m -1°C -1_9 0cm 100% 9mph 9mph 1026mB
0:00 1186m -1°C -1_7 0cm 100% 7mph 7mph 1028mB
3:00 921m -2°C -2_6 0cm 96% 6mph 7mph 1029mB
6:00 896m -2°C -2_5 0cm 87% 5mph 5mph 1031mB
9:00 1342m -2°C -2_4 0cm 70% 4mph 4mph 1032mB
12:00 2957m 2°C 2_3 0cm 61% 3mph 4mph 1033mB
15:00 3066m 2°C 2_5 0cm 43% 5mph 5mph 1034mB
18:00 1078m 2°C 2_8 0cm 64% 8mph 9mph 1035mB
21:00 1135m -1°C -1_9 0cm 98% 9mph 9mph 1036mB
0:00 2268m -1°C -1_9 0cm 99% 9mph 10mph 1036mB
3:00 1161m -1°C -1_10 0cm 100% 10mph 11mph 1037mB
6:00 1179m -1°C -1_10 0cm 100% 10mph 11mph 1037mB
9:00 3326m 0°C 0_9 0cm 100% 9mph 10mph 1037mB
12:00 3368m 2°C 2_6 0cm 100% 6mph 7mph 1038mB
15:00 3256m 2°C 2_7 0cm 94% 7mph 8mph 1037mB
18:00 3158m 2°C 2_8 0cm 95% 8mph 9mph 1038mB
21:00 1346m -1°C -1_9 0cm 100% 9mph 10mph 1038mB
0:00 986m -2°C -2_9 0cm 100% 9mph 10mph 1038mB
3:00 910m -2°C -2_10 0cm 99% 10mph 11mph 1039mB
6:00 661m -4°C -4_10 0cm 100% 10mph 10mph 1040mB
9:00 1050m -4°C -4_9 0cm 89% 9mph 10mph 1042mB
12:00 1568m 0°C 0_8 0cm 84% 8mph 10mph 1042mB
15:00 1071m 0°C 0_8 0cm 95% 8mph 9mph 1041mB
18:00 679m 1°C 1_7 0cm 90% 7mph 7mph 1042mB
21:00 646m -1°C -1_3 0cm 78% 3mph 4mph 1042mB
0:00 562m -2°C -2_2 0cm 86% 2mph 3mph 1040mB
3:00 503m -2°C -2_4 0cm 17% 4mph 4mph 1039mB
6:00 480m -2°C -2_4 0cm 9% 4mph 6mph 1038mB
9:00 1031m -2°C -2_3 0cm 6% 3mph 4mph 1038mB
12:00 2132m 3°C 3_1 0cm 12% 1mph 2mph 1037mB
15:00 2381m 3°C 3_1 0cm 28% 1mph 2mph 1036mB
18:00 1097m 3°C 3_2 0cm 14% 2mph 2mph 1036mB
21:00 702m -2°C -2_2 0cm 43% 2mph 3mph 1037mB
0:00 614m -2°C -2_3 0cm 64% 3mph 4mph 1037mB
3:00 1072m -2°C -2_4 0cm 85% 4mph 5mph 1036mB
6:00 1027m -2°C -2_5 0cm 72% 5mph 6mph 1036mB
9:00 1940m -1°C -1_4 0cm 54% 4mph 5mph 1035mB
12:00 1858m 3°C 3_3 0cm 39% 3mph 3mph 1034mB
15:00 1559m 3°C 3_2 0cm 34% 2mph 2mph 1033mB
18:00 800m 3°C 3_3 0cm 49% 3mph 4mph 1033mB
21:00 553m -2°C -2_3 0cm 70% 3mph 4mph 1032mB
0:00 510m -2°C -2_3 0cm 81% 3mph 4mph 1031mB
3:00 576m -3°C -3_4 0cm 88% 4mph 4mph 1029mB
6:00 663m -3°C -3_5 0cm 44% 5mph 5mph 1028mB
Afternoon 0mm 0 547m 3°C 3_7 0cm 33% 7mph 9mph 1032mB
Morning 0mm 0 194m -5°C -5_4 0cm 85% 4mph 5mph 1032mB
Afternoon 0mm 0 670m 1°C 1_6 0cm 38% 6mph 7mph 1028mB
Morning 0mm 0 460m -3°C -3_7 0cm 55% 7mph 8mph 1022mB
Afternoon 0mm 0 949m 2°C 2_6 0cm 95% 6mph 8mph 1012mB
Morning 0mm 0.0625 86m -6°C -6_10 0cm 40% 10mph 26mph 1019mB
Afternoon 0mm 0 1280m 2°C 2_28 0cm 77% 28mph 61mph 1002mB
Morning 0mm 0.625 629m -2°C -2_20 5cm 97% 20mph 44mph 1007mB
Afternoon 0mm 0.4375 441m -2°C -2_13 4cm 98% 13mph 35mph 1017mB
Morning 0mm 0 0m -8°C -8_5 0cm 22% 5mph 6mph 1019mB
Afternoon 0mm 0 587m 0°C 0_6 0cm 72% 6mph 7mph 1005mB
Morning 0.015625mm 0 164m -5°C -5_8 0cm 100% 8mph 10mph 995mB

16 day outlook at a glance

Forecast issued: 2/17/2019 2:32:57 PM

Chat

Your comments and questions. In a resort? Let us know what it's like!


Characters left 250

For terms and conditions see Readers Comments on the Cookie and privacy policy page.